[[{"header":{"parameterUnit":"m.s-1","parameterCategory":1,"la1":30.2991,"la2":30.254,"lo1":-89.0895,"lo2":-89.0444,"dy":0.0017,"dx":0.0017,"nx":28,"ny":28,"refTime":"2023-09-19T03:00:00:Z","depth":0,"parameterNumber":2,"parameterNumberName":"U-component_of_WINDS"},"data":[0,0,0,0,0,0,0,0,0,0,0,0,0,0,0,0,0,0,0,0,0,0,0,0,0,0,0,0,0,0,0,0,0,0,0,0,0,0,0,0,0,0,0,0,0,0,0,0,0,0,0,0,0,0,0,0,0,0,-2.4271,-2.4272,0,-2.4375,-2.4376,-2.4378,-2.4378,-2.4377,-2.4376,-2.4374,-2.4482,-2.4486,-2.449,0,0,0,0,0,0,0,0,0,0,0,0,0,-2.4073,-2.4077,-2.4271,-2.4272,-2.4274,-2.4375,-2.4377,-2.4378,-2.4379,-2.4377,-2.4375,-2.4374,-2.448,-2.4485,-2.449,0,0,0,0,0,0,0,0,0,0,0,0,0,-2.4167,-2.4078,-2.4271,-2.4286,-2.4289,-2.4375,-2.4377,-2.4378,-2.4379,-2.4377,-2.4375,-2.4373,-2.4479,-2.4485,-2.4491,-2.4569,0,0,-2.4509,-2.4512,0,0,0,0,0,0,0,0,-2.4161,-2.4174,-2.4283,-2.4285,-2.4288,-2.4362,-2.4346,-2.4442,-2.4379,-2.4345,-2.4374,-2.4372,-2.4443,-2.4452,-2.4476,-2.4574,-2.4578,-2.451,-2.4514,-2.4516,-2.4518,0,0,0,0,0,0,0,-2.4155,-2.4169,-2.4312,-2.4284,-2.4288,-2.4288,-2.4299,-2.4364,-2.4404,-2.4348,-2.4348,-2.436,-2.4445,-2.447,-2.4479,-2.458,-2.451,-2.4515,-2.4519,-2.4521,-2.4746,-2.4748,0,0,0,0,0,0,-2.4145,-2.4164,-2.4309,-2.4315,-2.4219,-2.4293,-2.4306,-2.434,-2.4403,-2.4411,-2.4362,-2.436,-2.4461,-2.4472,-2.4483,-2.4578,-2.4516,-2.4522,-2.4526,-2.4744,-2.4747,-2.4749,0,0,0,0,0,0,-2.4141,-2.4158,-2.4305,-2.424,-2.4259,-2.4299,-2.4338,-2.4343,-2.4369,-2.4414,-2.4421,-2.4381,-2.446,-2.4474,-2.4547,-2.4581,-2.4525,-2.453,-2.4741,-2.4745,-2.4748,-2.4769,0,0,0,0,0,0,-2.4135,-2.4157,-2.4186,-2.4241,-2.4262,-2.4368,-2.434,-2.4347,-2.438,-2.4378,-2.4434,-2.4441,-2.4459,-2.4538,-2.4553,-2.4589,-2.4535,-2.4738,-2.4743,-2.4747,-2.4765,-2.4772,-2.4779,0,0,0,0,0,-2.4128,-2.4188,-2.4188,-2.4205,-2.43,-2.437,-2.4382,-2.4401,-2.4382,-2.4413,-2.4442,-2.4439,-2.4575,-2.4545,-2.4563,-2.4601,-2.4736,-2.4742,-2.4747,-2.4762,-2.4771,-2.4778,0,0,0,0,0,0,-2.4137,-2.4196,-2.4196,-2.4275,-2.4317,-2.4369,-2.4408,-2.441,-2.4459,-2.4455,-2.4478,-2.449,-2.4563,-2.4589,-2.4555,-2.4679,-2.4654,-2.4662,-2.4659,-2.4668,-2.4675,-2.4667,-2.454,0,0,0,0,0,-2.4149,-2.42,-2.4248,-2.4313,-2.4335,-2.4368,-2.4399,-2.441,-2.4455,-2.4473,-2.4507,-2.4551,-2.4603,-2.4637,-2.4688,-2.4769,-2.4781,-2.4804,-2.481,-2.4816,-2.4823,-2.4868,-2.4878,-2.4766,-2.4766,-2.4766,0,0,-2.4172,-2.421,-2.4242,-2.4316,-2.435,-2.4403,-2.4383,-2.4439,-2.4479,-2.4481,-2.4552,-2.4579,-2.4629,-2.4707,-2.4743,-2.4731,-2.4857,-2.4822,-2.4826,-2.4831,-2.4874,-2.4885,-2.4894,-2.477,-2.4769,-2.4769,0,0,-2.4242,-2.4277,-2.4335,-2.4369,-2.4421,-2.4442,-2.4456,-2.4508,-2.4526,-2.4598,-2.4601,-2.4648,-2.4738,-2.4774,-2.4804,-2.4887,-2.4887,-2.4903,-2.4938,-2.4982,-2.4991,-2.4998,-2.5028,-2.5038,-2.4911,-2.4911,-2.4911,0,-2.4265,-2.4345,-2.4364,-2.4421,-2.4454,-2.4458,-2.4517,-2.455,-2.4616,-2.4638,-2.4624,-2.4737,-2.4771,-2.4857,-2.4877,-2.4902,-2.4918,-2.4897,-2.4988,-2.4996,-2.5004,-2.5032,-2.5043,-2.4912,-2.4912,-2.4912,-2.4912,0,-2.437,-2.4425,-2.4466,-2.4529,-2.4566,-2.4624,-2.4652,-2.4688,-2.4696,-2.4719,-2.4792,-2.4834,-2.4893,-2.4914,-2.4923,-2.5001,-2.4992,-2.4983,-2.4957,-2.5015,-2.5042,-2.5054,-2.4915,-2.4914,-2.4914,-2.4913,0,0,-2.4449,-2.4522,-2.4536,-2.4565,-2.4622,-2.4665,-2.4723,-2.4781,-2.4811,-2.4856,-2.4905,-2.4981,-2.4973,-2.5007,-2.502,-2.5058,-2.5121,-2.5044,-2.5045,-2.5056,-2.521,-2.5216,-2.5228,-2.5121,-2.5123,-2.5125,-2.5205,0,-2.4525,-2.4627,-2.4646,-2.4736,-2.4786,-2.4792,-2.4842,-2.4883,-2.4906,-2.4953,-2.4979,-2.5033,-2.5018,-2.5038,-2.5076,-2.5105,-2.5152,-2.51,-2.5167,-2.5169,-2.5154,-2.5242,-2.525,-2.5323,-2.5216,-2.5218,-2.5219,0,-2.4627,-2.4674,-2.4768,-2.4819,-2.4841,-2.4886,-2.494,-2.4985,-2.5031,-2.5045,-2.5083,-2.5092,-2.5152,-2.5124,-2.5208,-2.5172,-2.5201,-2.522,-2.5223,-2.5229,-2.5197,-2.5251,-2.5347,-2.5358,-2.5236,-2.5235,-2.5233,0,-2.4674,-2.4762,-2.4829,-2.4853,-2.4914,-2.4945,-2.4972,-2.5016,-2.505,-2.5098,-2.5119,-2.5174,-2.5203,-2.5245,-2.5268,-2.5246,-2.535,-2.5324,-2.5364,-2.5363,-2.5385,-2.5384,-2.5487,-2.5405,-2.5405,-2.5404,-2.5404,0,-2.4757,-2.4814,-2.4851,-2.4893,-2.4957,-2.4979,-2.5042,-2.5068,-2.5108,-2.5155,-2.5163,-2.5207,-2.5235,-2.5283,-2.5302,-2.5368,-2.5381,-2.5395,-2.5399,-2.5394,-2.5392,-2.5413,-2.5408,-2.5407,-2.5407,-2.5406,-2.5406,0,-2.482,-2.4848,-2.4921,-2.4972,-2.4987,-2.5032,-2.5076,-2.5116,-2.514,-2.5199,-2.5214,-2.5251,-2.5308,-2.5335,-2.5406,-2.5419,-2.5494,-2.5495,-2.5478,-2.5479,-2.5517,-2.5513,-2.5637,-2.5654,-2.5561,-2.5562,-2.5563,0,-2.4871,-2.4915,-2.4971,-2.5002,-2.503,-2.5081,-2.5115,-2.5138,-2.5173,-2.5229,-2.5263,-2.532,-2.5367,-2.5458,-2.5492,-2.5546,-2.5548,-2.5588,-2.5556,-2.555,-2.5548,-2.5545,-2.555,-2.5593,-2.5594,-2.5595,-2.5595,0,-2.4958,-2.4969,-2.5018,-2.5071,-2.5111,-2.5154,-2.5197,-2.5222,-2.5252,-2.5291,-2.5349,-2.5386,-2.5458,-2.5515,-2.5571,-2.5599,-2.5602,-2.5605,-2.5617,-2.5612,-2.56,-2.5607,-2.5493,-2.5602,-2.5601,-2.5601,-2.56,-2.56,-2.5017,-2.5056,-2.5101,-2.5155,-2.5189,-2.5228,-2.5269,-2.5297,-2.5346,-2.5406,-2.5417,-2.5478,-2.5524,-2.56,-2.563,-2.5679,-2.567,-2.5687,-2.5691,-2.5695,-2.5697,-2.5593,-2.5689,-2.5689,-2.5689,-2.5689,-2.5689,0,-2.5104,-2.5133,-2.5182,-2.5241,-2.5283,-2.5282,-2.5329,-2.5365,-2.5419,-2.546,-2.5506,-2.5573,-2.5628,-2.5666,-2.5721,-2.5753,-2.5756,-2.5767,-2.5765,-2.5771,-2.5702,-2.5686,-2.5764,-2.5764,-2.5764,-2.5764,-2.5764,-2.5764,-2.5154,-2.5221,-2.5237,-2.532,-2.5349,-2.5409,-2.5436,-2.5473,-2.5506,-2.558,-2.5625,-2.5649,-2.569,-2.5748,-2.5799,-2.5809,-2.5829,-2.584,-2.5849,-2.5784,-2.5776,-2.5769,-2.5753,-2.5844,-2.5844,-2.5914,-2.5915,-2.5915]},{"header":{"parameterUnit":"m.s-1","parameterCategory":1,"la1":30.2991,"la2":30.254,"lo1":-89.0895,"lo2":-89.0444,"dy":0.0017,"dx":0.0017,"nx":28,"ny":28,"refTime":"2023-09-19T03:00:00:Z","depth":0,"parameterNumber":3,"parameterNumberName":"V-component_of_WINDS"},"data":[0,0,0,0,0,0,0,0,0,0,0,0,0,0,0,0,0,0,0,0,0,0,0,0,0,0,0,0,0,0,0,0,0,0,0,0,0,0,0,0,0,0,0,0,0,0,0,0,0,0,0,0,0,0,0,0,0,0,3.0818,3.0818,0,3.083,3.0831,3.0831,3.0811,3.081,3.081,3.0809,3.082,3.0821,3.0822,0,0,0,0,0,0,0,0,0,0,0,0,0,3.0774,3.0775,3.0818,3.0818,3.0818,3.083,3.0831,3.0831,3.0811,3.081,3.0809,3.0809,3.082,3.0821,3.0822,0,0,0,0,0,0,0,0,0,0,0,0,0,3.079,3.0775,3.0818,3.081,3.0809,3.083,3.0831,3.0831,3.0811,3.081,3.0809,3.0808,3.0819,3.0821,3.0822,3.0851,0,0,3.0826,3.0827,0,0,0,0,0,0,0,0,3.0789,3.0792,3.0811,3.081,3.081,3.0818,3.0819,3.0838,3.0812,3.081,3.0809,3.0808,3.082,3.0821,3.0826,3.0852,3.0852,3.0827,3.0827,3.0828,3.0828,0,0,0,0,0,0,0,3.0788,3.0791,3.0823,3.0811,3.081,3.0805,3.0806,3.0823,3.0821,3.081,3.0809,3.0811,3.082,3.0825,3.0826,3.0852,3.0827,3.0828,3.0829,3.0829,3.09,3.0901,0,0,0,0,0,0,3.0788,3.079,3.0822,3.0823,3.0797,3.0806,3.0808,3.0816,3.0821,3.082,3.0812,3.081,3.0823,3.0825,3.0826,3.0859,3.0828,3.0829,3.083,3.0899,3.0901,3.0902,0,0,0,0,0,0,3.0787,3.0791,3.0822,3.0806,3.081,3.0808,3.0818,3.0817,3.0822,3.0822,3.0821,3.0817,3.0822,3.0824,3.0845,3.0859,3.083,3.0831,3.0898,3.09,3.0901,3.0925,0,0,0,0,0,0,3.0786,3.0791,3.0803,3.0807,3.0811,3.0841,3.0819,3.0818,3.0825,3.0823,3.0827,3.0826,3.0821,3.0843,3.0846,3.086,3.0832,3.0897,3.0899,3.0901,3.0923,3.0927,3.0931,0,0,0,0,0,3.0785,3.0809,3.0803,3.0807,3.0825,3.0841,3.0844,3.0838,3.0826,3.0837,3.0837,3.0826,3.0858,3.0845,3.0849,3.0863,3.0896,3.0898,3.0901,3.0921,3.0926,3.0931,0,0,0,0,0,0,3.0806,3.0809,3.0803,3.083,3.0835,3.0838,3.0852,3.0844,3.0853,3.085,3.0843,3.0844,3.0865,3.0867,3.0853,3.0891,3.0874,3.0878,3.0889,3.0894,3.0898,3.0896,3.0833,0,0,0,0,0,3.0814,3.0828,3.083,3.0852,3.0856,3.0853,3.086,3.0856,3.0861,3.0863,3.0864,3.087,3.088,3.0887,3.0898,3.0924,3.0923,3.0936,3.094,3.0943,3.0945,3.0957,3.0962,3.091,3.091,3.091,0,0,3.083,3.0833,3.0842,3.0857,3.0861,3.0874,3.0856,3.0871,3.088,3.0865,3.0884,3.0885,3.0891,3.0913,3.0924,3.0915,3.096,3.0946,3.0949,3.0949,3.096,3.0965,3.0969,3.0911,3.0911,3.0911,0,0,3.0865,3.087,3.0889,3.0893,3.09,3.0898,3.0903,3.0907,3.0907,3.0926,3.0915,3.0926,3.0945,3.0948,3.0953,3.099,3.098,3.0993,3.1013,3.1025,3.1029,3.1033,3.1043,3.1048,3.0996,3.0996,3.0996,0,3.0884,3.0904,3.0899,3.0915,3.092,3.0909,3.0927,3.0931,3.0941,3.0944,3.0936,3.0959,3.0962,3.0984,3.0993,3.0998,3.1001,3.0992,3.1029,3.1032,3.1036,3.1046,3.105,3.0997,3.0997,3.0997,3.0997,0,3.0925,3.0939,3.0954,3.0963,3.0971,3.0988,3.0984,3.0993,3.0988,3.0987,3.1005,3.1009,3.1018,3.1024,3.1019,3.1046,3.104,3.103,3.1013,3.1042,3.1052,3.1056,3.0999,3.0999,3.0998,3.0998,0,0,3.0973,3.098,3.0984,3.0988,3.0994,3.1005,3.1021,3.1031,3.1037,3.1044,3.1056,3.1073,3.1063,3.1068,3.1064,3.1075,3.1101,3.1063,3.1063,3.1068,3.1128,3.1134,3.1138,3.1096,3.1096,3.1097,3.1127,0,3.1006,3.1034,3.103,3.1056,3.1068,3.1057,3.1071,3.1076,3.1075,3.1085,3.1084,3.1095,3.1083,3.1086,3.1097,3.1096,3.1112,3.1094,3.1105,3.1105,3.1101,3.1144,3.115,3.1178,3.1131,3.1131,3.1132,0,3.1048,3.1057,3.1084,3.1087,3.1092,3.1105,3.1113,3.1123,3.1128,3.1127,3.1132,3.1126,3.114,3.1125,3.1144,3.1132,3.1136,3.1137,3.1137,3.1136,3.1119,3.1141,3.1187,3.119,3.1138,3.1138,3.1137,0,3.1077,3.1096,3.1114,3.1117,3.1123,3.1131,3.1134,3.1138,3.1144,3.1151,3.1154,3.1164,3.1168,3.1175,3.117,3.116,3.119,3.1174,3.1187,3.1187,3.1192,3.1192,3.1237,3.1199,3.1199,3.1199,3.1199,0,3.1113,3.1129,3.1126,3.1137,3.1155,3.1151,3.1168,3.117,3.1173,3.1183,3.1176,3.1185,3.118,3.1189,3.1186,3.1201,3.1204,3.1202,3.1201,3.1202,3.1202,3.1203,3.12,3.12,3.12,3.12,3.12,0,3.1147,3.1146,3.1165,3.1169,3.117,3.1182,3.1185,3.1195,3.1194,3.1207,3.121,3.1209,3.1219,3.1216,3.1227,3.1225,3.1244,3.1241,3.1242,3.124,3.1253,3.1251,3.1299,3.1304,3.1265,3.1265,3.1266,0,3.1169,3.1181,3.1186,3.1193,3.1196,3.1207,3.1213,3.1209,3.1215,3.1222,3.123,3.124,3.1247,3.1264,3.1263,3.1272,3.1268,3.1284,3.1269,3.1269,3.1265,3.1264,3.1264,3.1286,3.1286,3.1287,3.1287,0,3.1207,3.1206,3.1215,3.1224,3.1232,3.1238,3.1244,3.125,3.1247,3.1254,3.1265,3.127,3.1282,3.1291,3.1298,3.13,3.1292,3.1292,3.1295,3.1295,3.1294,3.1293,3.1248,3.1291,3.129,3.129,3.129,3.129,3.1234,3.1244,3.1249,3.1259,3.1263,3.1269,3.1278,3.1279,3.1287,3.1296,3.1294,3.1305,3.1309,3.1319,3.1322,3.133,3.1324,3.1329,3.1329,3.133,3.1331,3.1295,3.1332,3.1331,3.1331,3.1331,3.1331,0,3.127,3.1273,3.1282,3.1291,3.1299,3.1292,3.1299,3.1305,3.1315,3.132,3.1328,3.1339,3.1348,3.1349,3.1357,3.1363,3.136,3.1365,3.1363,3.1363,3.1337,3.1332,3.1367,3.1367,3.1367,3.1367,3.1367,3.1367,3.1289,3.1305,3.1304,3.1322,3.1324,3.1336,3.134,3.1345,3.1348,3.1361,3.1369,3.1369,3.1372,3.138,3.1388,3.1388,3.139,3.1396,3.1395,3.1369,3.1366,3.1362,3.1358,3.1397,3.1397,3.142,3.142,3.142]}]]